THORAD DELTA 1 DEB, 42593

Orbit data source: Space-Track

THORAD DELTA 1 DEB, 42593 is space debris in LEO originally from a launch on Fri, 15 Nov 1974 UTC launched from the Air Force Western Test Range (AFWTR). Debris objects in space refer to the collection of defunct objects orbiting the Earth. Examples of debris include non-operational satellites, rocket bodies, and fragments generated from explosions, collisions, or faulty payload assembly.

Loading next visibility...
Identifier
42593, 1974-089FJ
Orbit
LEO
Country
Flag of USUS
Related business
Manufacturer
Unknown
Mission
Spacecraft
Bus & Motor
Unknown
Mass
Unknown
Launch date (UTC)
1974-11-15 (51 years ago)
Launch vehicle
Unknown
Launch site
Air Force Western Test Range (AFWTR)
Object type
Payload
Rocket body
Debris
Shape & HBR
Unknown
Radar Cross Section
Small (<0.1 m²)

Expand to show TLE details & history
Last TLE update: 3 days ago

TLE from 3 days ago
0 THORAD DELTA 1 DEB
1 42593U 74089FJ  25259.55768823  .00000922  00000-0  11881-1 0  9991
2 42593 101.1894 187.9567 0373935  95.5324  88.2559 11.83921943510879
Epoch: 2025-09-16T13:23Z
TLE epoch observation values (Epoch: 2025-09-16T13:23:04.263Z)
Latitude
-8.06243°
Longitude
169.84461°
Altitude
1,759.689 km
Speed
6.999 km/s
True Right ascension
00h 25m 26s
True Declination
-8° 01' 14"
Sunlit
Object was in full shadow at epoch
Visualization orbit readout
Latitude
Unknown
Longitude
Unknown
Altitude
Unknown
Speed
Unknown
Apparent Right ascension
Unknown
Apparent Declination
Unknown
Sunlit
N/A
Visualization observer readout
Local Sidereal Time
19:55:26
Azimuth
Unknown
Elevation
Unknown
Doppler factor
Unknown
Orbital elements
Apogee altitude
2,055.244 km
Perigee altitude
1,447.271 km
Semi-major axis
8,129.394 km
Eccentricity
0.03739
Inclination
101.1894°
RAAN
187.9567°
Arg. of periapsis
95.5324°
True anomaly
92.541°
Mean anomaly
88.2559°
Eccentric anomaly
90.39834°
Mean motion
2.96112 °/min
Orbital period
121.58 mins
BSTAR
0.011881
Loading maneuver chart data...
Computing Atmospheric mass density...

Documentation

Showing up to 5 results
|